Regional Weather Roundup
Issued by NWS Wakefield, VA

Home | Current Version | Previous Version | Text Only | Print | Product List | Glossary Off
Versions: 1 2 3 4 5 6 7 8 9 10 11 12 13 14 15 16 17 18 19 20 21 22 23 24 25 26 27 28 29 30 31 32 33 34 35 36 37 38 39 40 41 42 43 44 45 46 47 48 49 50

182
ASUS41 KAKQ 202216
RWRAKQ

REGIONAL WEATHER ROUNDUP
NATIONAL WEATHER SERVICE WAKEFIELD VA
600 PM EDT SUN AUG 20 2017

Note: "fair" indicates few or no clouds below 12,000 feet with no
significant weather and/or obstructions to visibility. * = Denotes
station may not report precipitation (e.g., rain,snow,etc.),
thunder or fog.

VAZ042-051-052>054-056-202300-
NORTHERN VIRGINIA

CITY           SKY/WX    TMP DP  RH WIND       PRES   REMARKS
WASH NATIONAL  SUNNY     86  64  47 N8        30.10F
DULLES         SUNNY     85  63  47 N3        30.11S
FORT BELVOIR   SUNNY     87  62  42 CALM      30.10S
QUANTICO       SUNNY     85  68  56 CALM      30.11S
FREDERICKSBRG* SUNNY     86  69  56 E5        30.10S
STAFFORD*      SUNNY     84  69  60 E7        30.15S
WARRENTON      SUNNY     86  63  45 CALM      30.11S
CULPEPER*      SUNNY     87  69  54 E3        30.11S
MANASSAS*      SUNNY     85  67  54 S5        30.11S
LEESBURG*      SUNNY     86  66  51 CALM      30.12S
WINCHESTER     SUNNY     81  63  54 SE6       30.12S
FRONT ROYAL*   CLEAR     82  70  65 E5        30.11S
LURAY*         MOCLDY    84  68  58 E6        30.11S
$$

VAZ048-049-060>072-079>083-202300-
CENTRAL AND SOUTH CENTRAL VIRGINIA

CITY           SKY/WX    TMP DP  RH WIND       PRES   REMARKS
RICHMOND       MOSUNNY   86  70  58 E6        30.10R
CHESTERFIELD*  FAIR      88  68  51 E3        30.11R
PETERSBURG*    SUNNY     87  65  47 N5        30.10S
HANOVER        SUNNY     86  67  52 E5        30.11S
TAPPAHANNOCK*  SUNNY     87  57  36 N3        30.12R
QUINTON*       FAIR     N/A N/A N/A CALM      30.10R
CHARLOTTSVILLE MOSUNNY   87  67  51 E6        30.10S
GORDONSVILLE*  CLEAR     86  70  59 NE3       30.10S
ORANGE*        SUNNY     86  66  51 CALM      30.11S
LOUISA*        SUNNY     84  66  54 CALM      30.11S
BUMPASS*       FAIR      85  70  60 E3        30.11S
FARMVILLE*     SUNNY     90  53  28 S3        30.09S
CREWE*         FAIR      87  62  42 CALM      30.10S
FORT PICKETT*  FAIR     N/A N/A N/A E5        30.11R
CHASE CITY*    FAIR      89  69  52 CALM      30.11R
CLARKSVILLE*   FAIR      90  70  51 CALM      30.10R HX  95
SOUTH HILL*    SUNNY     87  75  66 CALM      30.16R HX  97
LAWRENCEVILLE* FAIR      87  73  62 CALM      30.10R
EMPORIA*       SUNNY     90  70  51 E6        30.10S HX  95
$$

VAZ088>098-202300-
SOUTHEAST VIRGINIA

CITY           SKY/WX    TMP DP  RH WIND       PRES   REMARKS
NORFOLK        MOSUNNY   85  68  56 E8        30.10S
VIRGINIA BEACH MOSUNNY   81  71  71 E10       30.10S
NORFOLK NAVAL  MOSUNNY   84  69  60 E10       30.12S
WEST POINT*    SUNNY     85  68  56 E6        30.11S
SALUDA*        FAIR      83  67  59 E5        30.11S
NEWPORT NEWS   SUNNY     83  70  64 E7        30.11R
LANGLEY AFB    SUNNY     83  72  68 E9        30.10S
FORT EUSTIS    SUNNY     90  69  49 E9        30.08S
WILLIAMSBURG*  SUNNY     88  72  58 CALM      30.11S
HR EXEC AP*    FAIR      88  73  62 E5        30.07S HX  96
FRANKLIN*      MOSUNNY   85  74  68 NE8       30.09R
US460-WAKEFLD  SUNNY     86  73  65 VRB5      30.10R
$$

VAZ020-022-025-037-045-202300-
WEST CENTRAL AND SOUTHWEST VIRGINIA

CITY           SKY/WX    TMP DP  RH WIND       PRES   REMARKS
STAUNTON*      MOSUNNY   83  68  60 SE3       30.15R
WAYNESBORO*    CLOUDY    83  68  59 SE5       30.15R
HOT SPRINGS VA MOSUNNY   73  55  53 CALM      30.29R
LYNCHBURG      MOSUNNY   89  60  37 S8        30.11S
DANVILLE       SUNNY     89  69  51 CALM      30.10S
SOUTH BOSTON*  FAIR      89  68  49 E3        30.10R
MARTINSVILLE   MOSUNNY   88  67  49 CALM      30.15R
ROANOKE        MOSUNNY   87  62  43 SE10      30.14R
BLACKSBURG     CLOUDY    83  65  54 E7        30.21S
DUBLIN*        MOSUNNY   86  62  43 E3        30.19S
MARION*        MOSUNNY   85  32  15 CALM      30.22S
HILLSVILLE*    PTSUNNY   79  61  54 CALM      30.21S
RICHLANDS*     FAIR      82  57  42 CALM      30.21S
WISE*          MOSUNNY   81  63  54 CALM      30.21S
ABINGDON*      SUNNY     87  64  46 CALM      30.16S
$$

MDZ021>025-VAZ099-100-202300-
SOUTHERN MARYLAND AND THE DELMARVA PENINSULA

CITY           SKY/WX    TMP DP  RH WIND       PRES   REMARKS
PATUXENT RIVER MOSUNNY   81  69  67 E5        30.11R
BAY BRIDGE APT SUNNY     84  66  54 SE6       30.11S
LEONARDTOWN    SUNNY     81  68  65 CALM      30.13S
DOVER          SUNNY     82  59  44 W6        30.11R
GEORGETOWN     SUNNY     84  61  45 NW5       30.11S
EASTON         NOT AVBL
CAMBRIDGE      SUNNY     82  63  51 CALM      30.11S
SALISBURY      SUNNY     85  62  46 NW7       30.11R
OCEAN CITY     SUNNY     78  69  73 SE3       30.12R
WALLOPS ISLAND SUNNY     81  71  71 S8        30.12R
ACCOMACK*      SUNNY     83  69  62 CALM      30.11S
$$

NCZ012>017-030>032-202300-
NORTH CENTRAL AND EASTERN NORTH CAROLINA

CITY           SKY/WX    TMP DP  RH WIND       PRES   REMARKS
ROANOKE RAPIDS FAIR      88  72  58 CALM      30.09R
RALEIGH        MOSUNNY   92  65  40 E8        30.09R
ELIZABETH CITY SUNNY     86  73  65 E8        30.10S
AHOSKIE*         N/A     88  71  58 SE3       30.09R
EDENTON*       SUNNY     87  75  66 CALM      30.10S HX  97
CURRITUCK*     SUNNY     84  73  70 E7        30.11S
KILL DEVIL HLS SUNNY     81  75  81 CALM      30.10R
MANTEO         SUNNY     82  76  82 E9        30.11S
CAPE HATTERAS  SUNNY     84  78  82 VRB3      30.10R HX  95
TARBORO*       NOT AVBL
GOLDSBORO      MOSUNNY   92  72  51 E7        30.07S HX  99
WASHINGTON     SUNNY     89  71  54 SE6       30.09R
GREENVILLE     SUNNY     90  70  51 E8        30.10R HX  95
NEW BERN       CLOUDY    87  72  60 SE6       30.10R
WILMINGTON     CLOUDY    84  76  76 E9        30.09R
$$

VAZ048-202300-
ELSEWHERE

CITY           SKY/WX    TMP DP  RH WIND       PRES   REMARKS
HARRISBURG PA  MOSUNNY   80  69  69 SW5       30.10S
BALTIMORE      SUNNY     84  60  44 VRB6      30.10S
ANNAPOLIS      SUNNY     83  67  58 SE7       30.10S
ANDREWS AFB    SUNNY     84  60  44 N3        30.10S
PHILADELPHIA   MOSUNNY   85  58  39 NW10      30.09S
HENDERSON NC   MOSUNNY   85  66  52 E5        30.10R
GREENSBORO     MOSUNNY   90  67  46 NE8       30.10S
ROCKY MOUNT    MOSUNNY   90  72  55 VRB5      30.09R HX  97
$$

VAZ100-202300-
MARINE

STATION/POSITION TIME  TEMP    WIND        PRES    WAVE   SWELL
                       AIR SEA DIR/SP/G            HT/PER HT/PER
                 (UTC) (F)     (DEG/KT/KT) (MB)    (FT/S) (FT/S)
BRANDYWINE LGT   2148          350/  2/  2 1019.7S
CAPE MAY NJ      2148   83 80  300/  4/  6 1018.9R
LEWES DE         2148           CALM  /  2 1019.3R
15NM E FENWICK I 2150   79 79  340/  6/  6 1020.0R   2/ 5   2/ 5
OCEAN-CITY-INLET 2148   80 79  190/  4/  5 1020.2R
WACHAPREAGUE VA  2148   81 87  170/  5/  7 1019.8R
THOMAS POINT MD  2200   81 82  140/  3/  4   N/A
GOOSES REEF MD   2200   82 81  140/  2/  4 1020.3    0
COVE POINT MD    2148   80      50/  4/  4 1020.3R
SOLOMONS ISLAND  2148           90/  3/  5   N/A
BISHOPS HEAD MD  2148   83 85  280/  5/  7 1019.8S
PINEY POINT MD   2148          170/  3/  3   N/A
POTOMAC MD       2200   81 84   70/  4/  6 1019.2    0
CAMBRIDGE MD     2148                      1020.6R
LEWISETTA VA     2148   81 83  110/  6/  7 1019.6R
RAPPAHANNOCK LGT 2148           10/  7/  8 1020.4R
STINGRAY PT      2200   83 83   80/  8/ 10 1019.9    1/ 2
YORK RVR RNG VA  2148   81      60/ 10/ 10 1019.9R
YORKTOWN VA      2148   82 83   90/  8/  9 1019.2R
JAMESTOWN VA     2200      87  110/  6/  8   N/A     0
DOMINION TERM VA 2148   83      80/  3/ 11 1019.6R
KIPTOPEKE VA     2148      83  110/  8/ 12   N/A
CHES BAY BRIDGE  2148   80 80  120/ 11/ 12 1019.5S
CAPE HENRY VA    2148   80     100/  9/ 11   N/A
WILLOUBY STN VA  2148           60/  7/  8 1019.5S
S CRANEY ISL VA  2148   82      60/  8/ 10 1019.2S
CAPE HENRY BUOY  2200      82                N/A     2/ 8
1ST LANDING BUOY 2200   80 81              1019.3    2/ 3
64NM E OF VA BCH 2150   79 81   60/  8/  8 1020.0F   2/ 8   2/ 8
DUCK PIER NC     2148   82 80   80/  9/ 10 1019.2R
44100 DUCK FRF   2105      82                N/A     2/ 8
44056 DUCK FRF   2200      81                N/A     2/ 9
OREGON INLET NC  2148           70/  9/ 11 1019.5R
HATTERAS NC      2148   81 81  110/  5/  8 1019.5R
DIAMOND SHLS NC  2150   82 85   50/  4/  6 1019.3R   2/ 8   2/ 8
CAPE LOOKOUT NC  2200   82     100/  5/  6 1018.8R
$$




USA.gov is the U.S. government's official web portal to all federal, state and local government web resources and services.